Regional Weather Roundup
Issued by NWS

Home | Current Version | Previous Version | Graphics & Text | Print | Product List | Glossary Off
Versions: 1 2 3 4 5 6 7 8 9 10 11 12 13 14 15 16 17 18 19 20 21 22 23 24 25 26 27 28 29 30 31 32 33 34 35 36 37 38 39 40 41 42 43 44 45 46 47 48 49 50

000
ASUS43 KMKX 230511
RWRWI

WISCONSIN REGIONAL WEATHER ROUNDUP
NATIONAL WEATHER SERVICE MILWAUKEE/SULLIVAN WI
1200 AM CDT WED AUG 23 2017

NOTE: "FAIR" INDICATES FEW OR NO CLOUDS BELOW 12,000 FEET WITH NO
SIGNIFICANT WEATHER AND/OR OBSTRUCTIONS TO VISIBILITY.

WIZ001-002-006>008-014>016-023>028-230600-
NORTHWEST WISCONSIN

CITY           SKY/WX    TMP DP  RH WIND       PRES   REMARKS
SUPERIOR ARPT    N/A     55  52  90 NW7       29.99S
ASHLAND        PTCLDY    56  53  90 W7        29.97S
HAYWARD        CLEAR     57  50  77 CALM      30.00S
SIREN          CLEAR     55  49  80 CALM      30.03S
CUMBERLAND     PTCLDY    54  46  76 NW5       30.02S
RICE LAKE      PTCLDY    55  50  81 CALM      30.03S
CHETEK         CLEAR     59  50  72 NW6       30.02R
LADYSMITH      CLEAR     58  50  75 W8        30.01S
EAU CLAIRE     PTCLDY    58  50  75 W5        30.00S
MENOMONIE      CLEAR     60  50  70 W7        30.02S
NEW RICHMOND   PTCLDY    56  48  74 W6        30.04R
OSCEOLA        MOCLDY    59  50  70 W5        30.06R
$$

WIZ003>005-009-010-017-018-230600-
NORTH CENTRAL WISCONSIN

CITY           SKY/WX    TMP DP  RH WIND       PRES   REMARKS
MANITOWISH WTR CLEAR     52  52 100 NW3       29.96R
ARBOR VITAE    CLEAR     57  54  91 NW7       29.95S
WOODRUFF       CLEAR     57  54  91 NW7       29.95S
RHINELANDER    CLEAR     55  51  86 W6        29.96R
EAGLE RIVER    CLEAR     55  50  84 NW8       29.94S
LAND O LAKES   CLEAR     55  53  91 NW9       29.95S
PHILLIPS       CLEAR     55  52  89 NW5       29.97S
TOMAHAWK         N/A     53  49  88 W5        29.97S
MEDFORD        CLEAR     54  48  81 W6        29.99R
MERRILL        CLEAR     54  52  94 W5        29.97R
$$

WIZ029-030-035-036-043>047-230600-
CENTRAL WISCONSIN

CITY           SKY/WX    TMP DP  RH WIND       PRES   REMARKS
WAUSAU         CLEAR     57  50  77 W10       29.96R
MOSINEE        CLEAR     55  50  82 W8        29.98S
MARSHFIELD     CLEAR     56  47  71 W6        29.98S
STEVENS POINT  CLEAR     57  49  74 SW6       29.98S
WAUPACA        CLEAR     61  49  66 W8        29.97S
WAUTOMA        CLEAR     56  50  80 W6        29.99R
WISC RAPIDS    CLEAR     58  49  72 W8        30.00R
CAMP DOUGLAS   CLEAR     51  48  87 W8        30.01R
$$

WIZ011>013-019>022-031-037>040-048>050-230600-
NORTHEAST WISCONSIN

CITY           SKY/WX    TMP DP  RH WIND       PRES   REMARKS
ANTIGO         PTCLDY    53  50  89 W6        29.95S
SHAWANO        CLEAR     61  50  67 W6        29.94R
OCONTO         CLEAR     56  50  80 W7        29.91R
STURGEON BAY   CLEAR     63  53  70 W10       29.91R
GREEN BAY      CLEAR     59  52  77 W9        29.94R
MANITOWOC      CLEAR     61  50  67 W8        29.94S
APPLETON       CLEAR     55  46  71 W7        29.95R
CLINTONVILLE   CLEAR     57  46  67 W5        29.95S
OSHKOSH        CLEAR     59  49  69 CALM      29.96S
$$

WIZ032>034-041-042-053>061-230600-
SOUTHWEST WISCONSIN

CITY           SKY/WX    TMP DP  RH WIND       PRES   REMARKS
LA CROSSE      NOT AVBL
SPARTA         CLEAR     49  48  97 CALM      30.03S
VIROQUA        CLEAR     55  52  90 SW7       30.05S
BOSCOBEL       CLEAR     55  53  93 CALM      30.05R
PRAIRIE DU CHI CLEAR     61  49  65 N3        30.06R
PLATTEVILLE    CLEAR     56  54  93 CALM      30.06R
$$

WIZ056-057-062-063-064-067-068-230600-
SOUTH CENTRAL WISCONSIN

CITY           SKY/WX    TMP DP  RH WIND       PRES   REMARKS
REEDSBURG      CLEAR     57  51  79 CALM      30.02S
BARABOO/DELLS  CLEAR     58  49  70 CALM      30.02S
LONE ROCK      CLEAR     56  54  93 CALM      30.03S
MINERAL POINT  CLEAR     59  54  82 W3        30.05R
MADISON        CLEAR     60  51  72 VRB3      30.01S
MIDDLETON      CLEAR     56  53  88 CALM      30.03R
WATERTOWN      CLEAR     58  53  83 CALM      30.00S
MONROE         CLEAR     59  50  72 W9        30.04R
JANESVILLE     CLEAR     57  50  77 W5        30.01S
$$

WIZ051-052-058>065-066-070>072-230600-
SOUTHEAST WISCONSIN

CITY           SKY/WX    TMP DP  RH WIND       PRES   REMARKS
MILWAUKEE      CLEAR     66  51  58 W8        29.98R
WAUKESHA       CLEAR     57  50  77 W7        30.00S
MILWAUKEE/TIMM CLEAR     61  46  59 W8        29.99S
RACINE         CLEAR     62  52  69 W7        30.00R
KENOSHA        CLEAR     58  51  78 W7        30.00R
FOND DU LAC    CLEAR     61  48  62 W9        29.97S
SHEBOYGAN      CLEAR     57  54  89 W5        29.96R
WEST BEND      CLEAR     59  50  72 W7        29.98S
JUNEAU         CLEAR     58  51  75 CALM      30.01R
$$

LSZ147-162-230600-
LAKE SUPERIOR

STATION/POSITION TIME  TEMP    WIND        PRES    WAVE
                       AIR SEA DIR/SP/G            HT/PER
                 (UTC) (F)     (DEG/KT/KT) (MB)    (FT/S)
W MID LAKE BUOY  0450   61 60  310/ 17/ 21 1012.5R   3/ 5
DEVILS ISLAND    0500   61     310/ 14/ 18 1014.2R
PORT WING        0230   66     320/ 10/ 12 1014.6
SAXON HARBOR     0440   62     290/  7/ 11 1013.9R
$$

LMZ867-665-643>646-230600-
LAKE MICHIGAN

STATION/POSITION TIME  TEMP    WIND        PRES    WAVE
                       AIR SEA DIR/SP/G            HT/PER
                 (UTC) (F)     (DEG/KT/KT) (MB)    (FT/S)
S GREEN BAY BUOY 0500   65 71  270/ 16/ 17 1012.6
N MID LAKE BUOY  0450   65 67  280/ 17/ 21 1011.0R   3/ 4
NORTHPORT PIER   0440   64     290/ 10/ 18 1011.2S
KEWAUNEE LAKESHO 0442   61     290/  3/  5 1012.0F
SHEBOYGAN LAKESH 0500   63     250/  9/ 11 1014.0R
PORT WASHINGTON  0440   64     270/  4/  6 1015.6R
ATWATER BUOY     0409   67 68  270/ 12/ 16 1014.9R
MILWAUKEE LAKESH 0450   66     280/  9/ 11   N/A
S MID LAKE BUOY  0350   71 71  320/ 16/ 19 1013.9R   4/ 5
KENOSHA   LAKESH 0500   65     280/ 10/ 13 1015.6
$$

TC  - TEMPERATURE IN CELSIUS
VSB - VISIBILITY IN STATUTE MILES
WCI - WIND CHILL INDEX
HX  - HEAT INDEX




USA.gov is the U.S. government's official web portal to all federal, state and local government web resources and services.